| time (UTC) | temp F | wind direction | speed MPH | gust MPH | rain 1hr in | rain 24hr in | rain mn in | humidity % | barometer mb |
| 20260903192727 | 77 | 311 | 3.0 | 11.0 | 0.00 | 0.02 | 0.00 | 19 | 1022.2 |
| 20260903191809 | 79 | 103 | 4.0 | 15.0 | 0.00 | 0.02 | 0.00 | 18 | 1022.2 |
| 20260903190906 | 77 | 81 | 4.0 | 15.0 | 0.00 | 0.02 | 0.00 | 19 | 1022.2 |
| 20260903190017 | 78 | 53 | 3.0 | 10.0 | 0.00 | 0.02 | 0.00 | 19 | 1022.2 |
| 20260903185408 | 78 | 45 | 3.0 | 9.0 | 0.00 | 0.02 | 0.00 | 24 | 1022.2 |
| 20260903184506 | 78 | 87 | 3.0 | 10.0 | 0.00 | 0.02 | 0.00 | 21 | 1022.2 |
| 20260903183607 | 78 | 64 | 4.0 | 10.0 | 0.00 | 0.02 | 0.00 | 23 | 1022.2 |
| 20260903182706 | 77 | 81 | 3.0 | 9.0 | 0.00 | 0.02 | 0.00 | 22 | 1022.2 |
| 20260903181810 | 77 | 78 | 3.0 | 10.0 | 0.00 | 0.02 | 0.00 | 25 | 1022.2 |
| 20260903180928 | 76 | 44 | 2.0 | 6.0 | 0.00 | 0.02 | 0.00 | 26 | 1022.2 |
| 20260903180023 | 75 | 72 | 1.0 | 5.0 | 0.00 | 0.02 | 0.00 | 25 | 1022.7 |
| 20260903175407 | 75 | 91 | 1.0 | 4.0 | 0.00 | 0.02 | 0.00 | 30 | 1022.7 |
| 20260903174506 | 75 | 109 | 2.0 | 6.0 | 0.00 | 0.02 | 0.00 | 27 | 1022.7 |
| 20260903173607 | 74 | 34 | 3.0 | 10.0 | 0.00 | 0.02 | 0.00 | 25 | 1022.7 |
| 20260903172706 | 74 | 72 | 2.0 | 7.0 | 0.00 | 0.02 | 0.00 | 27 | 1022.7 |
| 20260903171807 | 74 | 98 | 3.0 | 9.0 | 0.00 | 0.02 | 0.00 | 30 | 1022.7 |
| 20260903170906 | 73 | 45 | 2.0 | 10.0 | 0.00 | 0.02 | 0.00 | 31 | 1022.7 |
| 20260903170007 | 72 | 98 | 2.0 | 7.0 | 0.00 | 0.02 | 0.00 | 32 | 1022.6 |
| 20260903165407 | 72 | 70 | 2.0 | 7.0 | 0.00 | 0.02 | 0.00 | 31 | 1022.6 |
| 20260903164506 | 71 | 38 | 2.0 | 10.0 | 0.00 | 0.02 | 0.00 | 33 | 1022.6 |
| 20260903163628 | 71 | 94 | 3.0 | 11.0 | 0.00 | 0.02 | 0.00 | 31 | 1022.6 |
| 20260903162706 | 69 | 86 | 3.0 | 7.0 | 0.00 | 0.02 | 0.00 | 34 | 1022.6 |
| 20260903161807 | 68 | 57 | 2.0 | 8.0 | 0.00 | 0.02 | 0.00 | 36 | 1022.6 |
| 20260903160907 | 66 | 59 | 3.0 | 7.0 | 0.00 | 0.02 | 0.00 | 39 | 1022.6 |
| 20260903160007 | 63 | 26 | 2.0 | 5.0 | 0.00 | 0.02 | 0.00 | 44 | 1023.3 |
| 20260903155407 | 62 | 44 | 2.0 | 6.0 | 0.00 | 0.02 | 0.00 | 45 | 1023.3 |
| 20260903154506 | 59 | 132 | 1.0 | 4.0 | 0.00 | 0.02 | 0.00 | 55 | 1023.3 |
| 20260903153608 | 56 | 135 | 1.0 | 4.0 | 0.00 | 0.02 | 0.00 | 62 | 1023.3 |
| 20260903152706 | 53 | 147 | 0.0 | 3.0 | 0.00 | 0.02 | 0.00 | 73 | 1023.3 |
| 20260903151807 | 51 | 148 | 0.0 | 1.0 | 0.00 | 0.02 | 0.00 | 80 | 1023.3 |
| 20260903150906 | 49 | 0 | 0.0 | 0.0 | 0.00 | 0.02 | 0.00 | 84 | 1023.3 |
| 20260903150007 | 48 | 0 | 0.0 | 0.0 | 0.00 | 0.02 | 0.00 | 84 | 1023.3 |
| 20260903145407 | 48 | 0 | 0.0 | 0.0 | 0.00 | 0.02 | 0.00 | 84 | 1023.3 |
| 20260903144506 | 47 | 0 | 0.0 | 0.0 | 0.00 | 0.02 | 0.00 | 84 | 1023.3 |
| 20260903143627 | 46 | 0 | 0.0 | 0.0 | 0.00 | 0.02 | 0.00 | 85 | 1023.3 |
| 20260903142705 | 46 | 0 | 0.0 | 0.0 | 0.00 | 0.02 | 0.00 | 85 | 1023.3 |
| 20260903141808 | 45 | 0 | 0.0 | 0.0 | 0.00 | 0.02 | 0.00 | 85 | 1023.3 |
| 20260903140905 | 45 | 0 | 0.0 | 0.0 | 0.00 | 0.02 | 0.00 | 85 | 1023.3 |
| 20260903140006 | 44 | 0 | 0.0 | 0.0 | 0.00 | 0.02 | 0.00 | 85 | 1022.4 |
| 20260903135406 | 44 | 0 | 0.0 | 0.0 | 0.00 | 0.02 | 0.00 | 86 | 1022.4 |
| 20260903134506 | 44 | 0 | 0.0 | 0.0 | 0.00 | 0.02 | 0.00 | 85 | 1022.4 |
| 20260903133627 | 44 | 0 | 0.0 | 0.0 | 0.00 | 0.02 | 0.00 | 84 | 1022.4 |
| 20260903132705 | 44 | 0 | 0.0 | 0.0 | 0.00 | 0.02 | 0.00 | 84 | 1022.4 |
| 20260903131806 | 44 | 0 | 0.0 | 0.0 | 0.00 | 0.02 | 0.00 | 84 | 1022.4 |
| 20260903130905 | 44 | 0 | 0.0 | 0.0 | 0.00 | 0.02 | 0.00 | 84 | 1022.4 |
| 20260903130028 | 44 | 0 | 0.0 | 0.0 | 0.00 | 0.02 | 0.00 | 84 | 1022.4 |
| 20260903125406 | 44 | 0 | 0.0 | 0.0 | 0.00 | 0.02 | 0.00 | 83 | 1022.4 |
| 20260903124526 | 44 | 0 | 0.0 | 0.0 | 0.00 | 0.02 | 0.00 | 83 | 1022.4 |
| 20260903123606 | 44 | 0 | 0.0 | 0.0 | 0.00 | 0.02 | 0.00 | 83 | 1022.4 |
| 20260903122705 | 44 | 0 | 0.0 | 0.0 | 0.00 | 0.02 | 0.00 | 82 | 1022.4 |
| 20260903121807 | 44 | 0 | 0.0 | 0.0 | 0.00 | 0.02 | 0.00 | 82 | 1022.4 |
| 20260903120905 | 44 | 0 | 0.0 | 0.0 | 0.00 | 0.02 | 0.00 | 81 | 1022.4 |
| 20260903120006 | 44 | 0 | 0.0 | 0.0 | 0.00 | 0.02 | 0.00 | 82 | 1022.4 |
| 20260903115406 | 44 | 0 | 0.0 | 0.0 | 0.00 | 0.02 | 0.00 | 82 | 1022.4 |
| 20260903114505 | 44 | 0 | 0.0 | 0.0 | 0.00 | 0.02 | 0.00 | 82 | 1022.4 |
| 20260903113605 | 44 | 0 | 0.0 | 0.0 | 0.00 | 0.02 | 0.00 | 82 | 1022.4 |
| 20260903112705 | 44 | 0 | 0.0 | 0.0 | 0.00 | 0.02 | 0.00 | 82 | 1022.4 |
| 20260903111806 | 44 | 0 | 0.0 | 0.0 | 0.00 | 0.02 | 0.00 | 82 | 1022.4 |
| 20260903110906 | 44 | 0 | 0.0 | 0.0 | 0.00 | 0.02 | 0.00 | 82 | 1022.4 |
| 20260903110006 | 44 | 0 | 0.0 | 0.0 | 0.00 | 0.02 | 0.00 | 81 | 1022.4 |
| 20260903105406 | 44 | 0 | 0.0 | 0.0 | 0.00 | 0.02 | 0.00 | 82 | 1022.4 |
| 20260903104505 | 44 | 0 | 0.0 | 0.0 | 0.00 | 0.02 | 0.00 | 82 | 1022.4 |
| 20260903103606 | 44 | 0 | 0.0 | 0.0 | 0.00 | 0.02 | 0.00 | 81 | 1022.4 |
| 20260903102726 | 45 | 0 | 0.0 | 0.0 | 0.00 | 0.02 | 0.00 | 80 | 1022.4 |
| 20260903101805 | 45 | 0 | 0.0 | 0.0 | 0.00 | 0.02 | 0.00 | 81 | 1022.4 |
| 20260903100906 | 45 | 0 | 0.0 | 0.0 | 0.00 | 0.02 | 0.00 | 81 | 1022.4 |
| 20260903100010 | 45 | 0 | 0.0 | 0.0 | 0.00 | 0.02 | 0.00 | 81 | 1022.6 |
| 20260903095405 | 45 | 0 | 0.0 | 0.0 | 0.00 | 0.02 | 0.00 | 80 | 1022.6 |
| 20260903094505 | 46 | 0 | 0.0 | 0.0 | 0.00 | 0.02 | 0.00 | 79 | 1022.6 |
| 20260903093604 | 46 | 0 | 0.0 | 0.0 | 0.00 | 0.02 | 0.00 | 78 | 1022.6 |
| 20260903092706 | 46 | 0 | 0.0 | 0.0 | 0.00 | 0.02 | 0.00 | 79 | 1022.6 |
| 20260903091805 | 46 | 0 | 0.0 | 0.0 | 0.00 | 0.02 | 0.00 | 79 | 1022.6 |
| 20260903090926 | 46 | 0 | 0.0 | 0.0 | 0.00 | 0.02 | 0.00 | 78 | 1022.6 |
| 20260903090006 | 46 | 0 | 0.0 | 0.0 | 0.00 | 0.02 | 0.00 | 78 | 1022.6 |
| 20260903085405 | 46 | 0 | 0.0 | 0.0 | 0.00 | 0.02 | 0.00 | 78 | 1022.6 |
| 20260903084506 | 47 | 0 | 0.0 | 0.0 | 0.00 | 0.02 | 0.00 | 77 | 1022.6 |
| 20260903083604 | 47 | 0 | 0.0 | 0.0 | 0.00 | 0.02 | 0.00 | 79 | 1022.6 |
| 20260903082705 | 47 | 0 | 0.0 | 0.0 | 0.00 | 0.02 | 0.00 | 78 | 1022.6 |
| 20260903081826 | 47 | 0 | 0.0 | 0.0 | 0.00 | 0.02 | 0.00 | 79 | 1022.6 |
| 20260903080905 | 48 | 0 | 0.0 | 0.0 | 0.00 | 0.02 | 0.00 | 78 | 1022.6 |
| 20260903080006 | 48 | 0 | 0.0 | 0.0 | 0.00 | 0.02 | 0.00 | 76 | 1022.6 |
| 20260903075405 | 48 | 0 | 0.0 | 0.0 | 0.00 | 0.02 | 0.00 | 75 | 1022.6 |
| 20260903074505 | 48 | 155 | 0.0 | 1.0 | 0.00 | 0.02 | 0.00 | 75 | 1022.6 |
| 20260903073604 | 48 | 0 | 0.0 | 0.0 | 0.00 | 0.02 | 0.00 | 77 | 1022.6 |
| 20260903072705 | 49 | 0 | 0.0 | 0.0 | 0.00 | 0.02 | 0.00 | 76 | 1022.6 |
| 20260903071804 | 49 | 0 | 0.0 | 0.0 | 0.00 | 0.02 | 0.00 | 76 | 1022.6 |
| 20260903070905 | 49 | 0 | 0.0 | 0.0 | 0.00 | 0.02 | 0.00 | 75 | 1022.6 |
| 20260903070007 | 50 | 0 | 0.0 | 0.0 | 0.00 | 0.02 | 0.00 | 75 | 1022.6 |
| 20260903065425 | 50 | 0 | 0.0 | 0.0 | 0.00 | 0.02 | 0.00 | 76 | 1022.6 |
| 20260903064526 | 50 | 0 | 0.0 | 0.0 | 0.00 | 0.02 | 0.00 | 76 | 1022.6 |
| 20260903063604 | 51 | 0 | 0.0 | 0.0 | 0.00 | 0.02 | 0.00 | 78 | 1022.6 |
| 20260903062705 | 51 | 0 | 0.0 | 0.0 | 0.00 | 0.02 | 0.00 | 77 | 1022.6 |
| 20260903061804 | 52 | 0 | 0.0 | 0.0 | 0.00 | 0.02 | 0.00 | 78 | 1022.6 |
| 20260903060926 | 52 | 0 | 0.0 | 0.0 | 0.00 | 0.02 | 0.00 | 77 | 1022.6 |
| 20260903060011 | 52 | 0 | 0.0 | 0.0 | 0.00 | 0.02 | 0.00 | 76 | 1022.6 |
| 20260903055425 | 52 | 0 | 0.0 | 0.0 | 0.00 | 0.02 | 0.02 | 76 | 1022.6 |
| 20260903054505 | 53 | 0 | 0.0 | 0.0 | 0.00 | 0.02 | 0.02 | 78 | 1022.6 |
| 20260903053604 | 53 | 0 | 0.0 | 0.0 | 0.00 | 0.02 | 0.02 | 78 | 1022.6 |
| 20260903052705 | 53 | 0 | 0.0 | 0.0 | 0.00 | 0.02 | 0.02 | 78 | 1022.6 |
| 20260903051803 | 53 | 0 | 0.0 | 0.0 | 0.00 | 0.02 | 0.02 | 80 | 1022.6 |
| 20260903050905 | 53 | 0 | 0.0 | 0.0 | 0.00 | 0.02 | 0.02 | 79 | 1022.6 |
| 20260903050004 | 53 | 0 | 0.0 | 0.0 | 0.00 | 0.02 | 0.02 | 79 | 1022.6 |
| 20260903045425 | 53 | 0 | 0.0 | 0.0 | 0.00 | 0.02 | 0.02 | 78 | 1022.6 |
| 20260903044505 | 53 | 0 | 0.0 | 0.0 | 0.00 | 0.02 | 0.02 | 80 | 1022.6 |
| 20260903043604 | 53 | 0 | 0.0 | 0.0 | 0.00 | 0.02 | 0.02 | 80 | 1022.6 |
| 20260903042725 | 53 | 0 | 0.0 | 0.0 | 0.00 | 0.02 | 0.02 | 79 | 1022.6 |
| 20260903041803 | 53 | 0 | 0.0 | 0.0 | 0.00 | 0.02 | 0.02 | 80 | 1022.6 |
| 20260903040905 | 53 | 0 | 0.0 | 0.0 | 0.00 | 0.02 | 0.02 | 80 | 1022.6 |
| 20260903040010 | 53 | 0 | 0.0 | 0.0 | 0.00 | 0.02 | 0.02 | 80 | 1022.6 |
| 20260903035409 | 53 | 0 | 0.0 | 0.0 | 0.00 | 0.02 | 0.02 | 80 | 1022.6 |
| 20260903034508 | 54 | 0 | 0.0 | 0.0 | 0.00 | 0.02 | 0.02 | 81 | 1022.6 |
| 20260903033609 | 54 | 0 | 0.0 | 0.0 | 0.00 | 0.02 | 0.02 | 81 | 1022.6 |
| 20260903032729 | 54 | 0 | 0.0 | 0.0 | 0.00 | 0.02 | 0.02 | 81 | 1022.6 |
| 20260903031809 | 54 | 0 | 0.0 | 0.0 | 0.00 | 0.02 | 0.02 | 81 | 1022.6 |
| 20260903030908 | 54 | 0 | 0.0 | 0.0 | 0.00 | 0.02 | 0.02 | 83 | 1022.6 |
| 20260903030033 | 54 | 0 | 0.0 | 0.0 | 0.00 | 0.02 | 0.02 | 82 | 1022.6 |
| 20260903025409 | 54 | 0 | 0.0 | 0.0 | 0.00 | 0.02 | 0.02 | 82 | 1022.6 |
| 20260903024508 | 54 | 0 | 0.0 | 0.0 | 0.00 | 0.02 | 0.02 | 81 | 1022.6 |
| 20260903023609 | 55 | 0 | 0.0 | 0.0 | 0.00 | 0.02 | 0.02 | 82 | 1022.6 |
| 20260903022708 | 55 | 0 | 0.0 | 0.0 | 0.00 | 0.02 | 0.02 | 82 | 1022.6 |
| 20260903021811 | 56 | 0 | 0.0 | 0.0 | 0.00 | 0.02 | 0.02 | 82 | 1022.6 |
| 20260903020908 | 56 | 0 | 0.0 | 0.0 | 0.00 | 0.02 | 0.02 | 81 | 1022.6 |
| 20260903020009 | 56 | 0 | 0.0 | 0.0 | 0.00 | 0.02 | 0.02 | 81 | 1022.6 |
| 20260903015409 | 56 | 0 | 0.0 | 0.0 | 0.00 | 0.02 | 0.02 | 80 | 1022.6 |
| 20260903014508 | 56 | 0 | 0.0 | 0.0 | 0.00 | 0.02 | 0.02 | 79 | 1022.6 |
| 20260903013630 | 57 | 0 | 0.0 | 0.0 | 0.00 | 0.02 | 0.02 | 78 | 1022.6 |
| 20260903012708 | 58 | 0 | 0.0 | 0.0 | 0.00 | 0.02 | 0.02 | 79 | 1022.6 |
| 20260903011809 | 58 | 0 | 0.0 | 0.0 | 0.00 | 0.02 | 0.02 | 81 | 1022.6 |
| 20260903010908 | 59 | 0 | 0.0 | 0.0 | 0.00 | 0.02 | 0.02 | 82 | 1022.6 |
| 20260903010009 | 59 | 0 | 0.0 | 0.0 | 0.00 | 0.02 | 0.02 | 80 | 1022.2 |
| 20260903005411 | 59 | 0 | 0.0 | 0.0 | 0.00 | 0.02 | 0.02 | 81 | 1022.2 |
| 20260903004510 | 59 | 0 | 0.0 | 0.0 | 0.00 | 0.02 | 0.02 | 81 | 1022.2 |
| 20260903003611 | 59 | 0 | 0.0 | 0.0 | 0.00 | 0.02 | 0.02 | 82 | 1022.2 |
| 20260903002710 | 59 | 0 | 0.0 | 0.0 | 0.00 | 0.02 | 0.02 | 81 | 1022.2 |
| 20260903001811 | 59 | 0 | 0.0 | 0.0 | 0.00 | 0.02 | 0.02 | 80 | 1022.2 |
| 20260903000910 | 59 | 0 | 0.0 | 0.0 | 0.00 | 0.02 | 0.02 | 79 | 1022.2 |
| 20260903000011 | 60 | 0 | 0.0 | 0.0 | 0.00 | 0.02 | 0.02 | 80 | 1022.2 |
| 20260902235411 | 60 | 0 | 0.0 | 0.0 | 0.00 | 0.02 | 0.02 | 80 | 1022.2 |
| 20260902234531 | 59 | 0 | 0.0 | 0.0 | 0.00 | 0.02 | 0.02 | 79 | 1022.2 |
| 20260902233635 | 59 | 237 | 0.0 | 4.0 | 0.00 | 0.02 | 0.02 | 80 | 1022.2 |
| 20260902232710 | 58 | 134 | 0.0 | 2.0 | 0.00 | 0.02 | 0.02 | 79 | 1022.2 |
| 20260902231811 | 59 | 0 | 0.0 | 0.0 | 0.02 | 0.02 | 0.02 | 81 | 1022.2 |
| 20260902230910 | 59 | 152 | 0.0 | 4.0 | 0.02 | 0.02 | 0.02 | 82 | 1022.2 |
| 20260902230011 | 58 | 0 | 0.0 | 0.0 | 0.02 | 0.02 | 0.02 | 84 | 1022.2 |
| 20260902225410 | 58 | 0 | 0.0 | 0.0 | 0.02 | 0.02 | 0.02 | 85 | 1022.2 |
| 20260902224513 | 58 | 0 | 0.0 | 0.0 | 0.02 | 0.02 | 0.02 | 85 | 1022.2 |
| 20260902223610 | 58 | 190 | 0.0 | 4.0 | 0.02 | 0.02 | 0.02 | 80 | 1022.2 |
| 20260902222710 | 60 | 140 | 0.0 | 3.0 | 0.02 | 0.02 | 0.02 | 76 | 1022.2 |
| 20260902221810 | 66 | 107 | 2.0 | 7.0 | 0.00 | 0.00 | 0.00 | 61 | 1022.2 |
| 20260902220910 | 67 | 121 | 1.0 | 2.0 | 0.00 | 0.00 | 0.00 | 50 | 1022.2 |
| 20260902220011 | 68 | 134 | 0.0 | 4.0 | 0.00 | 0.00 | 0.00 | 46 | 1022.2 |
| 20260902215412 | 69 | 192 | 2.0 | 7.0 | 0.00 | 0.00 | 0.00 | 41 | 1022.2 |
| 20260902214509 | 70 | 114 | 1.0 | 8.0 | 0.00 | 0.00 | 0.00 | 45 | 1022.2 |
| 20260902213610 | 70 | 105 | 2.0 | 6.0 | 0.00 | 0.00 | 0.00 | 39 | 1022.2 |
| 20260902212710 | 69 | 105 | 1.0 | 3.0 | 0.00 | 0.00 | 0.00 | 41 | 1022.2 |
| 20260902211810 | 70 | 105 | 1.0 | 3.0 | 0.00 | 0.00 | 0.00 | 38 | 1022.2 |
| 20260902210909 | 70 | 130 | 2.0 | 4.0 | 0.00 | 0.00 | 0.00 | 36 | 1022.2 |
| 20260902210032 | 70 | 118 | 2.0 | 7.0 | 0.00 | 0.00 | 0.00 | 35 | 1022.6 |
| 20260902205410 | 70 | 101 | 2.0 | 6.0 | 0.00 | 0.00 | 0.00 | 36 | 1022.6 |
| 20260902204530 | 70 | 100 | 2.0 | 4.0 | 0.00 | 0.00 | 0.00 | 38 | 1022.6 |
| 20260902203631 | 71 | 125 | 2.0 | 7.0 | 0.00 | 0.00 | 0.00 | 37 | 1022.6 |
| 20260902202710 | 70 | 122 | 1.0 | 4.0 | 0.00 | 0.00 | 0.00 | 38 | 1022.6 |
| 20260902201810 | 69 | 135 | 0.0 | 3.0 | 0.00 | 0.00 | 0.00 | 41 | 1022.6 |
| 20260902200930 | 70 | 135 | 1.0 | 2.0 | 0.00 | 0.00 | 0.00 | 43 | 1022.6 |
| 20260902200010 | 71 | 126 | 2.0 | 3.0 | 0.00 | 0.00 | 0.00 | 33 | 1022.8 |
| 20260902195410 | 71 | 123 | 2.0 | 5.0 | 0.00 | 0.00 | 0.00 | 34 | 1022.8 |
| 20260902194509 | 72 | 123 | 1.0 | 4.0 | 0.00 | 0.00 | 0.00 | 37 | 1022.8 |
| 20260902193610 | 72 | 103 | 2.0 | 6.0 | 0.00 | 0.00 | 0.00 | 35 | 1022.8 |